Time,TemperatureF,DewpointF,PressureIn,WindDirection,WindDirectionDegrees,WindSpeedMPH,WindSpeedGustMPH,Humidity,HourlyPrecipIn,Conditions,Clouds,dailyrainin,SolarRadiationWatts/m^2,SoftwareType,DateUTC
2013-05-03 00:02:00,27.0,25.0,-100.00,NNE,12,7.0,17.0,93,0.00,,,0.04,0.000000,,2013-05-03 05:02:00,
2013-05-03 00:22:00,27.0,25.0,-100.00,NNE,12,7.0,17.0,93,0.00,,,0.04,0.000000,,2013-05-03 05:22:00,
2013-05-03 00:32:00,27.0,25.0,-100.00,NNE,12,7.0,17.0,93,0.00,,,0.04,0.000000,,2013-05-03 05:32:00,
2013-05-03 00:42:00,27.0,25.0,-100.00,NNE,12,7.0,17.0,93,0.00,,,0.04,0.000000,,2013-05-03 05:42:00,
2013-05-03 00:52:00,27.0,25.0,-100.00,NNE,12,7.0,17.0,93,0.00,,,0.04,0.000000,,2013-05-03 05:52:00,
2013-05-03 01:32:00,27.0,26.0,-100.00,NNE,16,8.0,16.0,94,0.00,,,0.04,0.000000,,2013-05-03 06:32:00,
2013-05-03 01:42:00,27.0,26.0,-100.00,NNE,16,8.0,16.0,94,0.00,,,0.04,0.000000,,2013-05-03 06:42:00,
2013-05-03 01:52:00,27.0,26.0,-100.00,NNE,16,8.0,16.0,94,0.00,,,0.04,0.000000,,2013-05-03 06:52:00,
2013-05-03 02:01:00,27.0,26.0,-100.00,NNE,16,8.0,16.0,94,0.00,,,0.04,0.000000,,2013-05-03 07:01:00,
2013-05-03 02:22:00,27.0,26.0,-100.00,NNE,29,6.0,15.0,95,0.00,,,0.04,0.000000,,2013-05-03 07:22:00,
2013-05-03 02:32:00,27.0,26.0,-100.00,NNE,29,6.0,15.0,95,0.00,,,0.04,0.000000,,2013-05-03 07:32:00,
2013-05-03 02:42:00,27.0,26.0,-100.00,NNE,29,6.0,15.0,95,0.00,,,0.04,0.000000,,2013-05-03 07:42:00,
2013-05-03 02:52:00,27.0,26.0,-100.00,NNE,29,6.0,15.0,95,0.00,,,0.04,0.000000,,2013-05-03 07:52:00,
2013-05-03 03:01:00,27.0,26.0,-100.00,NNE,29,6.0,15.0,95,0.00,,,0.04,0.000000,,2013-05-03 08:01:00,
2013-05-03 03:22:00,27.0,26.0,-100.00,NNE,22,5.0,13.0,95,0.00,,,0.04,0.000000,,2013-05-03 08:22:00,
2013-05-03 03:32:00,27.0,26.0,-100.00,NNE,22,5.0,13.0,95,0.00,,,0.04,0.000000,,2013-05-03 08:32:00,
2013-05-03 03:42:00,27.0,26.0,-100.00,NNE,22,5.0,13.0,95,0.00,,,0.04,0.000000,,2013-05-03 08:42:00,
2013-05-03 03:53:00,27.0,26.0,-100.00,NNE,22,5.0,13.0,95,0.00,,,0.04,0.000000,,2013-05-03 08:53:00,
2013-05-03 04:01:00,27.0,26.0,-100.00,NNE,22,5.0,13.0,95,0.00,,,0.04,0.000000,,2013-05-03 09:01:00,
2013-05-03 04:02:00,27.0,26.0,-100.00,NNE,30,7.0,14.0,94,0.00,,,0.04,0.000000,,2013-05-03 09:02:00,
2013-05-03 04:21:00,27.0,26.0,-100.00,NNE,30,7.0,14.0,94,0.00,,,0.04,0.000000,,2013-05-03 09:21:00,
2013-05-03 04:33:00,27.0,26.0,-100.00,NNE,30,7.0,14.0,94,0.00,,,0.04,0.000000,,2013-05-03 09:33:00,
2013-05-03 04:42:00,27.0,26.0,-100.00,NNE,30,7.0,14.0,94,0.00,,,0.04,0.000000,,2013-05-03 09:42:00,
2013-05-03 04:53:00,27.0,26.0,-100.00,NNE,30,7.0,14.0,94,0.00,,,0.04,0.000000,,2013-05-03 09:53:00,
2013-05-03 05:02:00,27.0,26.0,-100.00,NNE,17,4.0,13.0,94,0.00,,,0.04,0.000000,,2013-05-03 10:02:00,
2013-05-03 05:32:00,27.0,26.0,-100.00,NNE,17,4.0,13.0,94,0.00,,,0.04,0.000000,,2013-05-03 10:32:00,
2013-05-03 05:42:00,27.0,26.0,-100.00,NNE,17,4.0,13.0,94,0.00,,,0.04,0.000000,,2013-05-03 10:42:00,
2013-05-03 05:52:00,27.0,26.0,-100.00,NNE,17,4.0,13.0,94,0.00,,,0.04,0.000000,,2013-05-03 10:52:00,
2013-05-03 06:32:00,26.0,25.0,-100.00,NNE,25,5.0,13.0,94,0.00,,,0.04,1.000000,,2013-05-03 11:32:00,
2013-05-03 06:42:00,26.0,25.0,-100.00,NNE,25,5.0,13.0,94,0.00,,,0.04,1.000000,,2013-05-03 11:42:00,
2013-05-03 06:52:00,26.0,25.0,-100.00,NNE,25,5.0,13.0,94,0.00,,,0.04,1.000000,,2013-05-03 11:52:00,
2013-05-03 07:01:00,26.0,25.0,-100.00,NNE,25,5.0,13.0,94,0.00,,,0.04,1.000000,,2013-05-03 12:01:00,
2013-05-03 07:22:00,27.0,26.0,-100.00,NE,35,6.0,14.0,94,0.00,,,0.04,8.000000,,2013-05-03 12:22:00,
2013-05-03 07:32:00,27.0,26.0,-100.00,NE,35,6.0,14.0,94,0.00,,,0.04,8.000000,,2013-05-03 12:32:00,
2013-05-03 07:42:00,27.0,26.0,-100.00,NE,35,6.0,14.0,94,0.00,,,0.04,8.000000,,2013-05-03 12:42:00,
2013-05-03 07:52:00,27.0,26.0,-100.00,NE,35,6.0,14.0,94,0.00,,,0.04,8.000000,,2013-05-03 12:52:00,
2013-05-03 08:01:00,27.0,26.0,-100.00,NE,35,6.0,14.0,94,0.00,,,0.04,8.000000,,2013-05-03 13:01:00,
2013-05-03 08:02:00,28.0,26.0,-100.00,NE,36,6.0,14.0,93,0.00,,,0.04,31.000000,,2013-05-03 13:02:00,
2013-05-03 08:32:00,28.0,26.0,-100.00,NE,36,6.0,14.0,93,0.00,,,0.04,31.000000,,2013-05-03 13:32:00,
2013-05-03 08:42:00,28.0,26.0,-100.00,NE,36,6.0,14.0,93,0.00,,,0.04,31.000000,,2013-05-03 13:42:00,
2013-05-03 08:52:00,28.0,26.0,-100.00,NE,36,6.0,14.0,93,0.00,,,0.04,31.000000,,2013-05-03 13:52:00,
2013-05-03 09:32:00,29.0,27.0,-100.00,NE,37,7.0,19.0,91,0.00,,,0.04,86.000000,,2013-05-03 14:32:00,
2013-05-03 09:42:00,29.0,27.0,-100.00,NE,37,7.0,19.0,91,0.00,,,0.04,86.000000,,2013-05-03 14:42:00,
2013-05-03 09:52:00,29.0,27.0,-100.00,NE,37,7.0,19.0,91,0.00,,,0.04,86.000000,,2013-05-03 14:52:00,
2013-05-03 10:01:00,29.0,27.0,-100.00,NE,37,7.0,19.0,91,0.00,,,0.04,86.000000,,2013-05-03 15:01:00,
2013-05-03 10:02:00,30.0,28.0,-100.00,NNE,27,4.0,18.0,92,0.00,,,0.04,97.000000,,2013-05-03 15:02:00,
2013-05-03 10:32:00,30.0,28.0,-100.00,NNE,27,4.0,18.0,92,0.00,,,0.04,97.000000,,2013-05-03 15:32:00,
2013-05-03 10:43:00,30.0,28.0,-100.00,NNE,27,4.0,18.0,92,0.00,,,0.04,97.000000,,2013-05-03 15:43:00,
2013-05-03 10:53:00,30.0,28.0,-100.00,NNE,27,4.0,18.0,92,0.00,,,0.04,97.000000,,2013-05-03 15:53:00,
2013-05-03 11:02:00,31.0,28.0,-100.00,NE,34,7.0,15.0,90,0.00,,,0.04,151.000000,,2013-05-03 16:02:00,
2013-05-03 11:33:00,31.0,28.0,-100.00,NE,34,7.0,15.0,90,0.00,,,0.04,151.000000,,2013-05-03 16:33:00,
2013-05-03 11:42:00,31.0,28.0,-100.00,NE,34,7.0,15.0,90,0.00,,,0.04,151.000000,,2013-05-03 16:42:00,
2013-05-03 11:52:00,31.0,28.0,-100.00,NE,34,7.0,15.0,90,0.00,,,0.04,151.000000,,2013-05-03 16:52:00,
2013-05-03 12:23:00,31.0,29.0,-100.00,NNE,33,6.0,14.0,92,0.00,,,0.04,182.000000,,2013-05-03 17:23:00,
2013-05-03 12:32:00,31.0,29.0,-100.00,NNE,33,6.0,14.0,92,0.00,,,0.04,182.000000,,2013-05-03 17:32:00,
2013-05-03 12:42:00,31.0,29.0,-100.00,NNE,33,6.0,14.0,92,0.00,,,0.04,182.000000,,2013-05-03 17:42:00,
2013-05-03 12:52:00,31.0,29.0,-100.00,NNE,33,6.0,14.0,92,0.00,,,0.04,182.000000,,2013-05-03 17:52:00,
2013-05-03 13:01:00,31.0,29.0,-100.00,NNE,33,6.0,14.0,92,0.00,,,0.04,182.000000,,2013-05-03 18:01:00,
2013-05-03 13:32:00,32.0,30.0,-100.00,NNE,29,6.0,14.0,92,0.00,,,0.04,190.000000,,2013-05-03 18:32:00,
2013-05-03 13:42:00,32.0,30.0,-100.00,NNE,29,6.0,14.0,92,0.00,,,0.04,190.000000,,2013-05-03 18:42:00,
2013-05-03 13:52:00,32.0,30.0,-100.00,NNE,29,6.0,14.0,92,0.00,,,0.04,190.000000,,2013-05-03 18:52:00,
2013-05-03 14:01:00,32.0,30.0,-100.00,NNE,29,6.0,14.0,92,0.00,,,0.04,190.000000,,2013-05-03 19:01:00,
2013-05-03 14:02:00,32.0,30.0,-100.00,NNE,21,5.0,12.0,92,0.00,,,0.01,252.000000,,2013-05-03 19:02:00,
2013-05-03 14:32:00,32.0,30.0,-100.00,NNE,21,5.0,12.0,92,0.00,,,0.01,252.000000,,2013-05-03 19:32:00,
2013-05-03 14:42:00,32.0,30.0,-100.00,NNE,21,5.0,12.0,92,0.00,,,0.01,252.000000,,2013-05-03 19:42:00,
2013-05-03 14:52:00,32.0,30.0,-100.00,NNE,21,5.0,12.0,92,0.00,,,0.01,252.000000,,2013-05-03 19:52:00,
2013-05-03 15:32:00,33.0,31.0,-100.00,NE,38,6.0,12.0,93,0.02,,,0.02,196.000000,,2013-05-03 20:32:00,
2013-05-03 15:42:00,33.0,31.0,-100.00,NE,38,6.0,12.0,93,0.02,,,0.02,196.000000,,2013-05-03 20:42:00,
2013-05-03 15:52:00,33.0,31.0,-100.00,NE,38,6.0,12.0,93,0.02,,,0.02,196.000000,,2013-05-03 20:52:00,
2013-05-03 16:01:00,33.0,31.0,-100.00,NE,38,6.0,12.0,93,0.02,,,0.02,196.000000,,2013-05-03 21:01:00,
2013-05-03 16:02:00,32.0,31.0,-100.00,NE,41,6.0,11.0,95,0.02,,,0.04,125.000000,,2013-05-03 21:02:00,
2013-05-03 16:33:00,32.0,31.0,-100.00,NE,41,6.0,11.0,95,0.02,,,0.04,125.000000,,2013-05-03 21:33:00,
2013-05-03 16:43:00,32.0,31.0,-100.00,NE,41,6.0,11.0,95,0.02,,,0.04,125.000000,,2013-05-03 21:43:00,
2013-05-03 16:53:00,32.0,31.0,-100.00,NE,41,6.0,11.0,95,0.02,,,0.04,125.000000,,2013-05-03 21:53:00,
2013-05-03 19:32:00,31.0,30.0,-100.00,NE,35,4.0,9.0,97,-99.99,,,0.14,27.000000,,2013-05-04 00:32:00,
2013-05-03 19:42:00,31.0,30.0,-100.00,NE,35,4.0,9.0,97,-99.99,,,0.14,27.000000,,2013-05-04 00:42:00,
2013-05-03 19:52:00,31.0,30.0,-100.00,NE,35,4.0,9.0,97,-99.99,,,0.14,27.000000,,2013-05-04 00:52:00,
2013-05-03 20:01:00,31.0,30.0,-100.00,NE,35,4.0,9.0,97,-99.99,,,0.14,27.000000,,2013-05-04 01:01:00,
2013-05-03 20:02:00,31.0,31.0,-100.00,NE,37,4.0,8.0,98,0.01,,,0.15,10.000000,,2013-05-04 01:02:00,
2013-05-03 20:32:00,31.0,31.0,-100.00,NE,37,4.0,8.0,98,0.01,,,0.15,10.000000,,2013-05-04 01:32:00,
2013-05-03 20:42:00,31.0,31.0,-100.00,NE,37,4.0,8.0,98,0.01,,,0.15,10.000000,,2013-05-04 01:42:00,
2013-05-03 20:52:00,31.0,31.0,-100.00,NE,37,4.0,8.0,98,0.01,,,0.15,10.000000,,2013-05-04 01:52:00,
2013-05-03 21:02:00,31.0,31.0,-100.00,NE,35,4.0,9.0,98,0.02,,,0.17,0.000000,,2013-05-04 02:02:00,
2013-05-03 21:21:00,31.0,31.0,-100.00,NE,35,4.0,9.0,98,0.02,,,0.17,0.000000,,2013-05-04 02:21:00,
2013-05-03 21:32:00,31.0,31.0,-100.00,NE,35,4.0,9.0,98,0.02,,,0.17,0.000000,,2013-05-04 02:32:00,
2013-05-03 21:42:00,31.0,31.0,-100.00,NE,35,4.0,9.0,98,0.02,,,0.17,0.000000,,2013-05-04 02:42:00,
2013-05-03 21:52:00,31.0,31.0,-100.00,NE,35,4.0,9.0,98,0.02,,,0.17,0.000000,,2013-05-04 02:52:00,
2013-05-03 22:02:00,31.0,31.0,-100.00,NE,34,3.0,9.0,98,0.00,,,0.17,0.000000,,2013-05-04 03:02:00,
2013-05-03 22:22:00,31.0,31.0,-100.00,NE,34,3.0,9.0,98,0.00,,,0.17,0.000000,,2013-05-04 03:22:00,
2013-05-03 22:33:00,31.0,31.0,-100.00,NE,34,3.0,9.0,98,0.00,,,0.17,0.000000,,2013-05-04 03:33:00,
2013-05-03 22:43:00,31.0,31.0,-100.00,NE,34,3.0,9.0,98,0.00,,,0.17,0.000000,,2013-05-04 03:43:00,
2013-05-03 22:53:00,31.0,31.0,-100.00,NE,34,3.0,9.0,98,0.00,,,0.17,0.000000,,2013-05-04 03:53:00,
2013-05-03 23:02:00,32.0,32.0,-100.00,NNE,32,3.0,7.0,98,0.00,,,0.17,0.000000,,2013-05-04 04:02:00,
2013-05-03 23:33:00,32.0,32.0,-100.00,NNE,32,3.0,7.0,98,0.00,,,0.17,0.000000,,2013-05-04 04:33:00,
2013-05-03 23:43:00,32.0,32.0,-100.00,NNE,32,3.0,7.0,98,0.00,,,0.17,0.000000,,2013-05-04 04:43:00,
2013-05-03 23:52:00,32.0,32.0,-100.00,NNE,32,3.0,7.0,98,0.00,,,0.17,0.000000,,2013-05-04 04:52:00,